KI8L Weather Reports


time (UTC)temp
F
wind
direction
speed
knots
gust
knots
rain 1hr
in
rain 24hr
in
rain mn
in
humidity
%
barometer
mb
20260506144559 51 338 1.7 3.5 0.00 0.43 0.43 78 1013.0
20260506144056 50 357 1.7 2.6 0.00 0.43 0.43 79 1012.9
20260506143554 50 326 2.6 2.6 0.00 0.43 0.43 80 1013.1
20260506143052 50 350 3.5 5.2 0.00 0.43 0.43 81 1013.0
20260506142550 49 305 2.6 2.6 0.00 0.43 0.43 82 1013.2
20260506142048 49 307 0.9 1.7 0.00 0.43 0.43 82 1013.2
20260506141545 49 18 0.9 1.7 0.00 0.43 0.43 82 1013.1
20260506141044 49 277 0.9 0.9 0.00 0.43 0.43 84 1013.0
20260506140541 49 27 1.7 2.6 0.00 0.43 0.43 83 1013.0
20260506140038 48 329 1.7 2.6 0.00 0.43 0.43 89 1012.7
20260506135535 47 338 1.7 2.6 0.00 0.43 0.43 88 1013.0
20260506135031 47 355 3.5 3.5 0.00 0.43 0.43 89 1013.4
20260506134527 47 343 1.7 1.7 0.00 0.43 0.43 90 1013.2
20260506134023 47 325 1.7 2.6 0.00 0.43 0.43 92 1013.1
20260506133521 46 325 2.6 2.6 0.00 0.43 0.43 94 1013.1
20260506133018 46 6 1.7 2.6 0.00 0.43 0.43 94 1013.1
20260506132515 46 339 1.7 2.6 0.00 0.43 0.43 94 1013.0
20260506132012 46 324 3.5 3.5 0.00 0.43 0.43 96 1012.9
20260506131509 45 315 2.6 3.5 0.00 0.43 0.43 97 1012.7
20260506131005 45 8 0.9 1.7 0.00 0.43 0.43 97 1012.6
20260506130502 45 318 0.9 1.7 0.00 0.43 0.43 98 1012.6
20260506130000 45 38 0.9 0.9 0.00 0.43 0.43 97 1012.3
20260506125458 45 12 0.9 0.9 0.00 0.43 0.43 98 1012.3
20260506124955 45 357 1.7 1.7 0.00 0.43 0.43 98 1012.3
20260506124453 45 353 2.6 2.6 0.00 0.43 0.43 97 1012.4
20260506123951 45 42 1.7 1.7 0.00 0.43 0.43 98 1012.1
20260506123448 45 356 4.3 5.2 0.00 0.43 0.43 99 1011.8
20260506122946 45 0 3.5 3.5 0.00 0.43 0.43 99 1012.0
20260506122443 44 313 0.9 1.7 0.00 0.43 0.43 99 1012.1
20260506121941 44 316 0.9 1.7 0.00 0.43 0.43 99 1011.8
20260506121438 44 342 1.7 2.6 0.00 0.43 0.43 99 1011.7
20260506120934 45 326 1.7 1.7 0.00 0.43 0.43 99 1011.7
20260506120432 44 39 0.0 0.0 0.00 0.43 0.43 99 1011.4
20260506115929 44 25 0.9 0.9 0.00 0.43 0.43 99 1011.6
20260506115427 44 25 0.0 0.9 0.00 0.43 0.43 99 1011.6
20260506114925 44 25 0.0 0.0 0.00 0.43 0.43 99 1011.6
20260506114422 44 25 0.0 0.0 0.00 0.43 0.43 99 1011.7
20260506113921 44 25 0.9 1.7 0.00 0.43 0.43 99 1011.7
20260506113418 44 25 0.0 0.0 0.00 0.43 0.43 99 1011.6
20260506112915 44 25 0.0 0.0 0.00 0.43 0.43 99 1011.8
20260506112413 44 25 0.0 0.0 0.00 0.43 0.43 99 1011.8
20260506111910 43 25 0.0 0.0 0.00 0.43 0.43 99 1011.7
20260506111408 43 25 0.9 0.9 0.00 0.43 0.43 99 1011.5
20260506110904 43 25 0.9 1.7 0.00 0.43 0.43 99 1011.2
20260506110402 44 25 0.9 0.9 0.00 0.43 0.43 99 1011.0
20260506105858 44 25 0.0 0.0 0.00 0.43 0.43 99 1010.7
20260506105355 44 25 1.7 1.7 0.00 0.43 0.43 99 1011.0
20260506104852 44 296 0.9 0.9 0.00 0.43 0.43 99 1011.2
20260506104350 44 296 0.9 0.9 0.00 0.43 0.43 99 1011.1
20260506103848 44 320 0.9 1.7 0.00 0.43 0.43 99 1010.7
20260506103345 44 320 1.7 2.6 0.00 0.43 0.43 99 1010.7
20260506102842 44 329 0.9 1.7 0.00 0.43 0.43 99 1010.7
20260506102340 44 329 1.7 2.6 0.00 0.43 0.43 99 1010.9
20260506101837 44 11 3.5 3.5 0.00 0.43 0.43 99 1010.6
20260506101333 44 25 1.7 1.7 0.00 0.43 0.43 99 1009.9
20260506100831 44 331 1.7 2.6 0.00 0.43 0.43 99 1010.2
20260506100329 44 330 0.0 0.0 0.00 0.43 0.43 99 1009.9
20260506095827 44 330 0.0 0.9 0.00 0.43 0.43 99 1009.8
20260506095324 44 331 0.9 1.7 0.00 0.43 0.43 99 1009.7
20260506094820 44 357 1.7 2.6 0.00 0.43 0.43 99 1009.8
20260506094319 44 25 1.7 2.6 0.00 0.43 0.43 99 1009.5
20260506093817 44 35 1.7 1.7 0.00 0.43 0.43 99 1009.6
20260506093314 44 25 1.7 1.7 0.07 0.43 0.43 99 1009.9
20260506092812 44 358 3.5 3.5 0.07 0.43 0.43 99 1010.1
20260506092309 44 35 1.7 1.7 0.00 0.42 0.42 99 1010.3
20260506091806 44 9 2.6 2.6 0.00 0.42 0.42 99 1010.7
20260506091304 44 20 1.7 1.7 0.05 0.42 0.42 99 1010.7
20260506090801 44 11 3.5 5.2 0.05 0.42 0.42 99 1010.7
20260506090258 45 327 1.7 1.7 0.05 0.42 0.42 99 1010.5
20260506085755 45 318 0.0 0.0 0.07 0.41 0.41 99 1010.7
20260506085251 45 318 2.6 2.6 0.14 0.41 0.41 99 1010.5
20260506084748 44 348 0.0 0.0 0.07 0.40 0.40 99 1010.6
20260506084244 44 12 0.9 0.9 0.00 0.39 0.39 99 1010.6
20260506083741 44 345 1.7 1.7 0.00 0.39 0.39 99 1010.2
20260506083239 44 340 0.9 0.9 0.00 0.39 0.39 99 1010.4
20260506082737 44 340 0.9 0.9 0.00 0.39 0.39 99 1010.3
20260506082231 44 1 0.0 0.0 0.00 0.39 0.39 99 1010.4
20260506081730 44 3 1.7 1.7 0.05 0.39 0.39 99 1010.2
20260506081227 44 358 0.9 0.9 0.05 0.39 0.39 99 1010.4
20260506080725 44 5 1.7 2.6 0.00 0.38 0.38 99 1010.3
20260506080221 44 325 1.7 2.6 0.07 0.38 0.38 99 1010.6
20260506073205 44 32 1.7 1.7 0.17 0.33 0.33 99 1010.2
20260506072702 44 29 2.6 3.5 0.19 0.32 0.32 99 1010.4
20260506072200 44 26 1.7 1.7 0.12 0.30 0.30 99 1010.3
20260506071657 44 356 2.6 3.5 0.12 0.29 0.29 99 1010.3
20260506071155 44 14 2.6 5.2 0.14 0.28 0.28 99 1010.3
20260506070651 44 34 7.0 8.7 0.12 0.27 0.27 99 1010.0
20260506070148 45 12 2.6 2.6 0.12 0.26 0.26 99 1009.9
20260506062125 45 17 1.7 1.7 0.07 0.17 0.17 99 1010.1
20260506061621 45 3 2.6 2.6 0.05 0.16 0.16 99 1010.1
20260506061120 45 38 2.6 2.6 0.05 0.16 0.16 99 1010.0
20260506060617 45 19 1.7 2.6 0.00 0.15 0.15 99 1010.1
20260506060114 45 21 1.7 1.7 0.07 0.15 0.15 99 1010.1
20260506051046 48 33 0.9 0.9 0.05 0.07 0.07 99 1010.5
20260506050544 48 30 0.0 0.0 0.07 0.06 0.06 99 1010.3
20260506045034 48 30 1.7 1.7 0.05 0.05 0.05 99 1010.3
20260506044532 48 41 0.9 1.7 0.05 0.05 0.05 99 1010.4
20260506044029 48 29 0.9 0.9 0.07 0.04 0.04 99 1010.3
20260506043526 48 19 1.7 2.6 0.07 0.04 0.04 99 1010.3
20260506043024 48 30 0.9 0.9 0.07 0.03 0.03 99 1010.5
20260506042523 48 20 1.7 1.7 0.07 0.03 0.03 99 1010.3
20260506042021 48 29 0.9 0.9 0.00 0.02 0.02 99 1010.5
20260506041519 48 20 1.7 1.7 0.05 0.02 0.02 99 1010.4
20260506041015 48 22 1.7 1.7 0.12 0.02 0.02 99 1010.4
20260506040513 48 356 1.7 1.7 0.12 0.01 0.01 99 1010.6
20260506040009 48 18 2.6 3.5 0.12 1.14 1.14 99 1010.4
20260506035506 48 359 2.6 3.5 0.07 1.13 1.13 99 1010.6
20260506035003 48 47 1.7 2.6 0.12 1.13 1.13 99 1010.7
20260506034500 48 20 2.6 2.6 0.17 1.12 1.12 99 1010.9
20260506033957 49 12 1.7 1.7 0.19 1.11 1.11 99 1011.0
20260506033455 49 12 0.0 0.9 0.12 1.09 1.09 99 1011.0
20260506032951 49 345 1.7 1.7 0.05 1.08 1.08 99 1011.1
20260506032449 49 38 0.9 1.7 0.07 1.07 1.07 99 1011.1
20260506031944 49 354 1.7 2.6 0.12 1.07 1.07 99 1011.2
20260506031442 49 354 0.9 1.7 0.05 1.06 1.06 99 1011.3
20260506030940 49 353 1.7 1.7 0.07 1.05 1.05 99 1011.5
20260506030438 49 358 0.9 0.9 0.14 1.05 1.05 99 1011.4
20260506025934 49 359 1.7 2.6 0.07 1.04 1.04 99 1011.4
20260506025431 49 353 0.9 0.9 0.12 1.04 1.04 99 1011.3
20260506024928 49 359 1.7 2.6 0.05 1.03 1.03 99 1011.4
20260506024425 49 43 1.7 1.7 0.07 1.02 1.02 99 1011.4
20260506023920 49 353 0.9 0.9 0.07 1.02 1.02 99 1011.2
20260506023418 49 19 3.5 5.2 0.05 1.01 1.01 99 1011.2
20260506022914 49 16 1.7 1.7 0.12 1.01 1.01 99 1011.4
20260506022412 49 12 0.9 0.9 0.19 1.00 1.00 99 1011.7
20260506021910 50 355 1.7 2.6 0.17 0.99 0.99 99 1011.3
20260506021407 50 355 0.9 0.9 0.12 0.97 0.97 99 1011.4
20260506020903 50 355 0.0 0.0 0.19 0.96 0.96 99 1011.4
20260506020402 50 355 0.0 0.0 0.17 0.95 0.95 99 1011.5
20260506015859 50 353 1.7 1.7 0.12 0.93 0.93 99 1011.1
20260506015356 50 56 0.9 0.9 0.14 0.92 0.92 99 1011.1
20260506014853 50 43 1.7 1.7 0.12 0.91 0.91 99 1010.7
20260506014350 50 358 1.7 1.7 0.12 0.90 0.90 99 1010.9
20260506013846 50 24 0.9 0.9 0.12 0.89 0.89 99 1010.7
20260506013344 50 40 0.9 0.9 0.17 0.88 0.88 99 1010.5
20260506012840 50 3 1.7 1.7 0.19 0.87 0.87 99 1010.3
20260506012337 50 36 1.7 1.7 0.24 0.85 0.85 99 1010.4
20260506011834 50 29 1.7 1.7 0.35 0.84 0.84 99 1010.6
20260506011331 50 32 3.5 3.5 0.31 0.81 0.81 99 1010.5
20260506010828 50 341 1.7 2.6 0.31 0.79 0.79 99 1010.5
20260506010326 50 32 1.7 2.6 0.47 0.76 0.76 99 1010.4
20260506005823 50 4 3.5 3.5 0.54 0.73 0.73 99 1010.4
20260506005320 51 17 2.6 2.6 0.38 0.68 0.68 99 1010.2
20260506004816 51 22 2.6 3.5 0.35 0.64 0.64 99 1010.0
20260506004314 52 0 1.7 1.7 0.35 0.61 0.61 99 1010.2
20260506003809 52 0 0.9 1.7 0.38 0.59 0.59 99 1010.3
20260506003306 52 35 0.9 0.9 0.35 0.56 0.56 99 1009.9
20260506002802 52 35 0.0 0.0 0.24 0.52 0.52 99 1009.9
20260506002259 52 35 0.0 0.0 0.12 0.49 0.49 99 1009.9
20260506001754 52 35 0.0 0.0 0.12 0.48 0.48 99 1009.8
20260506001252 52 34 1.7 1.7 0.28 0.47 0.47 99 1009.7
20260506000749 52 48 1.7 1.7 0.31 0.46 0.46 99 1009.7
20260506000247 53 15 1.7 1.7 0.31 0.42 0.42 99 1009.9
20260505235743 54 353 0.9 1.7 0.31 0.41 0.41 99 1010.0
20260505235241 54 356 1.7 1.7 0.24 0.38 0.38 99 1010.0
20260505234737 55 10 2.6 2.6 0.17 0.36 0.36 99 1009.9
20260505234235 55 355 2.6 2.6 0.05 0.34 0.34 99 1009.9
20260505233731 56 25 2.6 3.5 0.00 0.33 0.33 99 1009.7
20260505233230 56 356 0.0 0.0 0.07 0.33 0.33 99 1009.9
20260505232726 56 356 0.0 0.0 0.07 0.33 0.33 99 1009.8
20260505232224 56 356 0.0 0.0 0.00 0.32 0.32 99 1009.9
20260505231720 57 356 0.0 0.9 0.00 0.32 0.32 99 1010.0
20260505231220 57 356 0.0 0.0 0.05 0.32 0.32 99 1010.1
20260505230717 57 356 0.0 0.0 0.05 0.32 0.32 99 1009.9
20260505230214 57 356 0.0 0.0 0.07 0.31 0.31 99 1010.0
20260505225710 57 356 0.0 0.0 0.12 0.31 0.31 99 1010.0
20260505225207 57 355 0.9 0.9 0.19 0.30 0.30 99 1010.1
20260505224702 57 345 0.0 0.9 0.19 0.29 0.29 99 1010.3
20260505224200 57 345 0.0 0.0 0.24 0.28 0.28 99 1010.3
20260505223658 57 345 0.0 0.0 0.19 0.26 0.26 99 1010.3
20260505223153 57 345 0.0 0.0 0.19 0.24 0.24 99 1010.4
20260505222650 57 345 0.0 0.9 0.28 0.23 0.23 99 1010.3
20260505222146 57 309 0.9 0.9 0.42 0.21 0.21 99 1010.2
20260505221643 57 308 0.0 0.0 0.38 0.18 0.18 99 1010.6
20260505221140 58 309 0.9 1.7 0.17 0.14 0.14 99 1010.3
20260505220637 58 329 1.7 1.7 0.12 0.12 0.12 99 1010.0
20260505220135 58 329 0.0 0.9 0.07 0.11 0.11 99 1009.8
20260505215632 58 329 0.0 0.0 0.00 0.10 0.10 99 1009.6
20260505215130 58 329 0.0 0.0 0.00 0.10 0.10 99 1009.7
20260505214628 58 329 0.0 0.0 0.00 0.10 0.10 99 1009.5
20260505214125 58 329 0.0 0.0 0.00 0.10 0.10 99 1009.6
20260505213622 58 329 0.0 0.9 0.00 0.10 0.10 99 1009.9
20260505213119 58 329 0.0 0.0 0.00 0.10 0.10 99 1009.9
20260505212615 58 329 0.9 1.7 0.00 0.10 0.10 99 1009.9
20260505212113 58 329 0.0 0.0 0.00 0.10 0.10 99 1009.8
20260505211609 58 329 0.0 0.0 0.00 0.10 0.10 99 1009.8
20260505211107 58 329 0.0 0.0 0.00 0.10 0.10 99 1009.9
20260505210603 58 329 0.0 0.0 0.00 0.10 0.10 99 1010.0
20260505210100 58 341 2.6 2.6 0.00 0.10 0.10 99 1010.0
20260505205558 58 341 0.0 0.0 0.00 0.10 0.10 99 1010.0
20260505205055 58 341 0.9 0.9 0.00 0.10 0.10 99 1010.0
20260505204552 58 341 0.0 0.0 0.00 0.10 0.10 99 1010.0
20260505204049 58 341 0.9 0.9 0.00 0.10 0.10 98 1010.0
20260505203546 59 341 1.7 2.6 0.12 0.10 0.10 98 1010.1
20260505203043 58 252 0.9 0.9 0.24 0.10 0.10 98 1010.2
20260505202539 59 252 0.0 0.0 0.12 0.08 0.08 98 1010.1
20260505202035 59 253 0.9 1.7 0.00 0.06 0.06 98 1010.4
20260505201532 59 253 0.0 0.0 0.00 0.06 0.06 97 1010.1
20260505201030 59 253 1.7 1.7 0.00 0.06 0.06 97 1010.3
20260505200528 59 253 0.9 0.9 0.00 0.06 0.06 97 1010.1
20260505200024 59 253 0.9 0.9 0.12 0.06 0.06 96 1010.2
20260505195520 59 233 1.7 2.6 0.31 0.06 0.06 96 1010.3
20260505195018 60 288 0.9 1.7 0.31 0.05 0.05 93 1010.1
20260505194515 61 271 0.0 0.0 0.05 0.01 0.01 89 1010.2
20260505194010 61 309 1.7 1.7 0.00 0.00 0.00 87 1010.5
20260505193508 61 10 1.7 1.7 0.00 0.00 0.00 87 1010.3
20260505193005 62 342 1.7 1.7 0.00 0.00 0.00 86 1010.3
20260505192503 62 314 0.9 1.7 0.00 0.00 0.00 86 1010.3
20260505192000 62 355 0.9 1.7 0.00 0.00 0.00 86 1010.2
20260505191459 63 6 1.7 3.5 0.00 0.00 0.00 85 1010.3
20260505190956 63 327 1.7 1.7 0.00 0.00 0.00 84 1010.1
20260505190450 63 273 0.9 1.7 0.00 0.00 0.00 83 1010.2
20260505185946 64 257 1.7 2.6 0.00 0.00 0.00 82 1010.1
20260505185444 64 230 1.7 2.6 0.00 0.00 0.00 80 1010.1
20260505184940 65 253 3.5 3.5 0.00 0.00 0.00 77 1010.1
20260505184437 65 252 0.9 0.9 0.00 0.00 0.00 77 1010.1
20260505183933 65 243 0.0 0.0 0.00 0.00 0.00 77 1010.1
20260505183430 66 242 0.9 1.7 0.00 0.00 0.00 77 1010.2
20260505182927 66 193 0.0 0.9 0.00 0.00 0.00 74 1010.1
20260505182424 65 189 0.0 0.0 0.00 0.00 0.00 78 1010.3
20260505181920 64 188 0.9 0.9 0.00 0.00 0.00 79 1010.3
20260505181418 64 187 0.9 1.7 0.00 0.00 0.00 79 1010.7
20260505180914 64 254 1.7 1.7 0.00 0.00 0.00 79 1010.6
20260505180411 64 248 0.9 0.9 0.00 0.00 0.00 78 1010.4
20260505175908 64 248 2.6 3.5 0.00 0.00 0.00 77 1010.5
20260505175404 64 216 3.5 5.2 0.00 0.00 0.00 79 1010.5
20260505174900 64 243 2.6 3.5 0.00 0.00 0.00 77 1010.4
20260505174358 64 245 1.7 1.7 0.00 0.00 0.00 77 1010.3
20260505173854 64 236 1.7 1.7 0.00 0.00 0.00 79 1010.3
20260505173350 64 241 2.6 3.5 0.00 0.00 0.00 78 1010.4
20260505172847 64 253 4.3 5.2 0.00 0.00 0.00 77 1010.5
20260505172345 64 249 2.6 3.5 0.00 0.00 0.00 76 1010.5
20260505171844 64 246 3.5 5.2 0.00 0.00 0.00 76 1010.6
20260505171342 64 243 3.5 5.2 0.00 0.00 0.00 76 1010.6
20260505170838 64 247 1.7 2.6 0.00 0.00 0.00 76 1010.6
20260505170335 64 204 3.5 6.1 0.00 0.00 0.00 77 1010.5
20260505165830 64 207 0.9 1.7 0.00 0.00 0.00 76 1010.4
20260505165326 64 208 0.9 1.7 0.00 0.00 0.00 75 1010.6
20260505164822 65 251 4.3 5.2 0.00 0.00 0.00 74 1010.6
20260505164319 65 256 1.7 3.5 0.00 0.00 0.00 74 1010.4
20260505163818 65 258 7.0 11.3 0.00 0.00 0.00 72 1010.4
20260505163316 66 238 3.5 5.2 0.00 0.00 0.00 71 1010.3
20260505162814 66 235 2.6 3.5 0.00 0.00 0.00 70 1010.3
20260505162310 66 243 4.3 6.1 0.00 0.00 0.00 69 1010.3
20260505161807 66 242 7.8 8.7 0.00 0.00 0.00 68 1010.5
20260505161304 67 233 4.3 6.1 0.00 0.00 0.00 70 1010.4
20260505160801 67 248 7.0 8.7 0.00 0.00 0.00 67 1010.3
20260505160259 67 257 6.1 7.8 0.00 0.00 0.00 67 1010.6
20260505153238 69 276 3.5 5.2 0.00 0.00 0.00 64 1009.8
20260505152736 69 225 4.3 6.1 0.00 0.00 0.00 67 1009.5
20260505152232 69 225 7.8 11.3 0.00 0.00 0.00 68 1009.5
20260505151732 68 194 8.7 9.6 0.00 0.00 0.00 65 1009.4
20260505151229 68 181 7.0 7.8 0.00 0.00 0.00 69 1008.9
20260505150726 68 190 4.3 6.1 0.00 0.00 0.00 69 1009.2
20260505150224 68 181 3.5 6.1 0.00 0.00 0.00 69 1009.2